This is the latest recevied weather packets stored in our database for station/object N5PA. If no packets are shown the sender has not sent any weather packets the latest 10 day(s).
| Time | Temp. | Humidity | Pressure | Rain* | Wind** | Luminosity | Snow |
|---|---|---|---|---|---|---|---|
| 1778123106 | 22.22° C | 26% | 1011.6 hPa | 0.51 mm | - | 995 W/m² | - |
| 1778122806 | 21.67° C | 28% | 1011.7 hPa | 1.02 mm | - | 997 W/m² | - |
| 1778122507 | 21.67° C | 31% | 1009.7 hPa | 1.02 mm | - | 995 W/m² | - |
| 1778122204 | 21.11° C | 32% | 1010.1 hPa | 1.02 mm | - | 995 W/m² | - |
| 1778121906 | 21.11° C | 34% | 1010.3 hPa | 1.02 mm | - | 995 W/m² | - |
| 1778121606 | 21.11° C | 35% | 1010.1 hPa | 1.02 mm | - | 995 W/m² | - |
| 1778121306 | 21.67° C | 36% | 1010.1 hPa | 1.02 mm | - | 995 W/m² | - |
| 1778121005 | 21.67° C | 36% | 1010.4 hPa | 1.02 mm | - | 995 W/m² | - |
| 1778120705 | 21.67° C | 37% | 1010.9 hPa | 1.02 mm | - | 997 W/m² | - |
| 1778120405 | 21.67° C | 39% | 1010.8 hPa | 0.76 mm | - | 995 W/m² | - |
| 1778120106 | 22.22° C | 38% | 1010.4 hPa | 0.76 mm | - | 995 W/m² | - |
| 1778119807 | 22.22° C | 35% | 1010.7 hPa | 0.76 mm | - | 995 W/m² | - |
| 1778119505 | 22.78° C | 33% | 1010.6 hPa | 1.02 mm | - | 995 W/m² | - |
| 1778119205 | 22.78° C | 33% | 1010.7 hPa | 0.76 mm | - | 993 W/m² | - |
| 1778118905 | 22.78° C | 34% | 1010.8 hPa | 0.51 mm | - | 993 W/m² | - |
| 1778118607 | 22.78° C | 34% | 1010.9 hPa | 0.51 mm | - | 993 W/m² | - |
| 1778118305 | 23.33° C | 33% | 1011.2 hPa | 0.76 mm | - | 993 W/m² | - |
| 1778118007 | 23.33° C | 33% | 1011.2 hPa | 0.76 mm | - | 993 W/m² | - |
| 1778117706 | 23.33° C | 32% | 1011.1 hPa | 0.76 mm | - | 993 W/m² | - |
| 1778117407 | 23.33° C | 31% | 1010.6 hPa | 1.02 mm | - | 993 W/m² | - |
| 1778117105 | 23.33° C | 31% | 1011 hPa | 1.27 mm | - | 991 W/m² | - |
| 1778116807 | 23.33° C | 32% | 1011 hPa | 1.27 mm | - | 991 W/m² | - |
| 1778116504 | 23.89° C | 31% | 1010.9 hPa | 1.52 mm | - | 990 W/m² | - |
| 1778116206 | 23.89° C | 28% | 1011 hPa | 1.27 mm | - | 991 W/m² | - |
| 1778115906 | 24.44° C | 28% | 1010.5 hPa | 1.02 mm | - | 991 W/m² | - |
* Rain latest hour (hover to see other rain measurements)
** Current wind speed in m/s (hover to see current wind gust speed)